Terminal Aerodrome Forecast
Issued by NWS

Home | Current Version | Previous Version | Text Only | Print | Product List | Glossary On
Versions: 1 2 3 4 5 6 7 8 9 10 11 12 13 14 15 16 17 18 19 20 21 22 23 24 25 26 27 28
000
FTUS45 KGJT 060105 AAA
TAFASE
TAF AMD
KASE 060105Z 0601/0624 VRB05KT P6SM VCTS SCT050CB BKN080
      TEMPO 0601/0604 VRB15G30KT 5SM TSRA BKN050CB
     FM060400 19005KT P6SM SCT050 BKN090
     FM061800 32006KT P6SM VCTS SCT060CB BKN090=

USA.gov is the U.S. government's official web portal to all federal, state and local government web resources and services.